STARLINK-37437, 69170

Orbit data source: Space-Track

STARLINK-37437, 69170 is a payload satellite owned by SpaceX/Seattle (US) in LEO that was launched on Thu, 21 May 2026 UTC via an FALCON 9 launch vehicle from the Air Force Eastern Test Range (AFETR). Payload-class satellites include a variety of spacecraft equipped with specific instruments for various scientific and technological missions. These include communications satellites like Starlink; space stations such as the ISS; scientific satellites like the Hubble; Earth observation satellites from companies like Planet Labs, Umbra, and HawkEye 360; GPS; miniature CubeSats for education and research; and military/defense satellites.

Loading next visibility...
Identifier
69170, 2026-111Y
Orbit
LEO
Country
Flag of USUS
Related business
Manufacturer
SpaceX/Seattle
Mission
Operational spacecraft
Bus & Motor
STARLINK V2MO, Unknown motor
Mass
575 kg wet, ~530 kg dry
Launch date (UTC)
2026-05-21 (1 month ago)
Launch vehicle
FALCON 9
Launch site
Air Force Eastern Test Range (AFETR)
Object type
Payload
Rocket body
Debris
Shape & HBR
Unknown shape, 14.5 m
Radar Cross Section
Large (>1 m²)

Expand to show TLE details & history
Last TLE update: 10 hours ago

TLE from 10 hours ago
0 STARLINK-37437
1 69170U 26111Y   26171.41668980  .00066918  00000-0  12009-2 0  9997
2 69170  53.1597 136.4270 0000691  42.8412 123.4707 15.49310319  6078
Epoch: 2026-06-20T10:00Z
TLE epoch observation values (Epoch: 2026-06-20T10:00:01.998Z)
Latitude
10.89949°
Longitude
-110.46113°
Altitude
419.148 km
Speed
7.662 km/s
True Right ascension
20h 32m 42s
True Declination
10° 49' 58"
Sunlit
Object was in full shadow at epoch
Visualization orbit readout
Latitude
Unknown
Longitude
Unknown
Altitude
Unknown
Speed
Unknown
Apparent Right ascension
Unknown
Apparent Declination
Unknown
Sunlit
N/A
Visualization observer readout
Local Sidereal Time
07:12:25
Azimuth
Unknown
Elevation
Unknown
Doppler factor
Unknown
Orbital elements
Apogee altitude
419.471 km
Perigee altitude
418.531 km
Semi-major axis
6,797.138 km
Eccentricity
0.00007
Inclination
53.1597°
RAAN
136.427°
Arg. of periapsis
42.8412°
True anomaly
123.4773°
Mean anomaly
123.4707°
Eccentric anomaly
123.474°
Mean motion
3.87306 °/min
Orbital period
92.95 mins
BSTAR
0.0012009
Loading maneuver chart data...
Computing Atmospheric mass density...
Loading historical data...
Loading historical data...
Loading historical data...
Loading historical data...
Loading historical data...
Loading historical data...
Loading historical data...

Documentation

Showing up to 5 results
|